Location: Arborea
(39.7744°N, 8.5819°E)
Time: 10:53:07
(UTC+00:00)

Okean-O - Visible Passes

Search period start: 29 May 2022 00:00
Search period end: 08 June 2022 00:00
Orbit: 637 x 640 km, 98.1° (Epoch: 29 May)

Date Brightness Start Highest point End Pass type
(mag) Time Alt. Az. Time Alt. Az. Time Alt. Az.
29 May 4.7 19:54:11 10° SSW 19:57:50 25° W 20:01:29 10° NW visible
30 May 5.3 20:18:46 10° SW 20:21:07 14° W 20:23:29 10° WNW visible
01 Jun 3.5 19:26:16 10° S 19:30:33 49° W 19:34:52 10° NNW visible
02 Jun 4.6 19:49:58 10° SSW 19:53:45 28° W 19:57:34 10° NW visible
03 Jun 5.3 20:14:20 10° SW 20:17:01 16° W 20:19:44 10° NW visible
05 Jun 3.3 19:22:09 10° S 19:26:29 56° W 19:30:51 10° NNW visible
06 Jun 4.4 19:45:46 10° SSW 19:49:40 31° W 19:53:36 10° NW visible
07 Jun 5.2 20:09:57 10° SW 20:12:55 18° W 20:15:55 10° NW visible
